Change the Weather History Date:

Friday, July 12, 2013

  Actual Average Record
Temperature  
Mean Temperature 79 °F -  
Max Temperature 88 °F 90 °F 100 °F (1980)
Min Temperature 70 °F 75 °F 69 °F (1957)
Cooling Degree Days 14    
Growing Degree Days 29 (Base 50)    
Moisture  
Dew Point 71 °F    
Average Humidity 86    
Maximum Humidity 100    
Minimum Humidity 60    
Precipitation  
Precipitation 0.46 in - - ()
Sea Level Pressure  
Sea Level Pressure 29.90 in    
Wind  
Wind Speed 4 mph (North)    
Max Wind Speed 22 mph    
Max Gust Speed 32 mph    
Visibility 8 miles    
Events Fog , Rain , Thunderstorm    
Averages and records for this station are not official NWS values.
T = Trace of Precipitation, MM = Missing Value Source: NWS Daily Summary

Daily Weather History Graph

Daily Weather History Graph

Search for Another Location

Airport or City:

Trip Planner

Search our weather history database for the weather conditions in past years. The results will help you decide how hot, cold, wet, or windy it might be!

Date:

Astronomy

Jul. 12, 2013 Rise Set
Actual Time 6:02 AM CDT 8:00 PM CDT
Civil Twilight 5:35 AM CDT 8:27 PM CDT
Nautical Twilight 5:02 AM CDT 9:00 PM CDT
Astronomical Twilight 4:27 AM CDT 9:34 PM CDT
Moon 9:58 AM CDT (7/12) 10:33 PM CDT (7/12)
Length of Visible Light 14h 51m
Length of Day
13h 57m
Waxing Crescent, 17% of the Moon is Illuminated
Jul 12
Waxing Crescent
Jul 15
First Quarter
Jul 22
Full
Jul 29
Last Quarter
Aug 6
New

Hourly Weather History & Observations

Time (CDT) Temp. Heat Index Dew Point Humidity Pressure Visibility Wind Dir Wind Speed Gust Speed Precip Events Conditions
12:58 AM 73.2 °F - 71.8 °F 95% 29.94 in 10.0 mi Variable 1.2 mph - N/A   Clear
1:38 AM 73.4 °F - 71.6 °F 94% 29.91 in 10.0 mi Variable 1.2 mph - N/A   Mostly Cloudy
1:58 AM 72.5 °F - 71.2 °F 96% 29.91 in 10.0 mi NNW 2.3 mph - N/A   Overcast
2:33 AM 71.6 °F - 71.6 °F 100% 29.90 in 10.0 mi Variable 2.3 mph - N/A   Overcast
2:38 AM 71.6 °F - 71.6 °F 100% 29.90 in 10.0 mi NW 3.5 mph - N/A   Overcast
2:53 AM 71.6 °F - 69.8 °F 94% 29.90 in 9.0 mi Variable 2.3 mph - N/A   Overcast
2:58 AM 71.8 °F - 70.5 °F 96% 29.91 in 8.0 mi Variable 3.5 mph - N/A   Overcast
3:03 AM 71.6 °F - 71.6 °F 100% 29.90 in 9.0 mi Variable 2.3 mph - N/A   Overcast
3:13 AM 71.6 °F - 71.6 °F 100% 29.90 in 7.0 mi Variable 3.5 mph - N/A   Overcast
3:18 AM 71.6 °F - 71.6 °F 100% 29.90 in 6.0 mi Variable 4.6 mph - N/A   Overcast
3:33 AM 71.6 °F - 69.8 °F 94% 29.90 in 8.0 mi Variable 2.3 mph - N/A   Overcast
3:38 AM 71.6 °F - 69.8 °F 94% 29.90 in 10.0 mi NW 2.3 mph - N/A   Overcast
3:48 AM 71.6 °F - 69.8 °F 94% 29.90 in 10.0 mi NNW 2.3 mph - N/A   Overcast
3:58 AM 71.4 °F - 70.5 °F 97% 29.91 in 10.0 mi Variable 3.5 mph - N/A   Overcast
4:58 AM 71.1 °F - 70.2 °F 97% 29.92 in 10.0 mi Variable 1.2 mph - N/A   Overcast
5:53 AM 71.6 °F - 69.8 °F 94% 29.92 in 10.0 mi Calm Calm - N/A   Scattered Clouds
5:58 AM 70.9 °F - 70.0 °F 97% 29.93 in 10.0 mi North 1.2 mph - N/A   Scattered Clouds
6:58 AM 71.6 °F - 70.3 °F 96% 29.94 in 10.0 mi NNE 2.3 mph - N/A   Clear
7:58 AM 74.1 °F - 71.1 °F 90% 29.94 in 10.0 mi NE 3.5 mph - N/A   Clear
8:58 AM 78.8 °F - 71.8 °F 79% 29.95 in 10.0 mi North 2.3 mph - N/A   Partly Cloudy
9:58 AM 83.1 °F 88.1 °F 71.4 °F 68% 29.94 in 10.0 mi Calm Calm - N/A   Clear
10:58 AM 86.5 °F 93.3 °F 72.7 °F 63% 29.93 in 10.0 mi Variable 1.2 mph - N/A   Clear
11:58 AM 88.2 °F 95.5 °F 72.9 °F 60% 29.92 in 10.0 mi Variable 3.5 mph - N/A   Clear
12:58 PM 86.4 °F 96.0 °F 75.4 °F 70% 29.91 in 10.0 mi SSW 9.2 mph - N/A   Scattered Clouds
1:58 PM 86.5 °F 96.4 °F 75.6 °F 70% 29.90 in 10.0 mi SSW 12.7 mph - N/A   Partly Cloudy
2:58 PM 86.9 °F 96.4 °F 75.0 °F 68% 29.89 in 10.0 mi SW 11.5 mph - N/A   Partly Cloudy
3:58 PM 87.1 °F 97.8 °F 76.1 °F 70% 29.87 in 10.0 mi SSW 16.1 mph - N/A   Clear
4:29 PM 84.2 °F 92.3 °F 75.2 °F 74% 29.87 in 10.0 mi SW 10.4 mph - N/A Rain Light Rain
4:38 PM 82.4 °F 90.9 °F 77.0 °F 84% 29.88 in 8.0 mi Variable 5.8 mph - N/A Rain , Thunderstorm Light Thunderstorms and Rain
4:48 PM 80.6 °F 87.1 °F 77.0 °F 89% 29.88 in 0.8 mi NW 3.5 mph - N/A Rain , Thunderstorm Heavy Thunderstorms and Rain
4:53 PM 78.8 °F - 75.2 °F 89% 29.87 in 0.5 mi WSW 6.9 mph - N/A Fog , Rain , Thunderstorm Heavy Thunderstorms and Rain
4:58 PM 79.3 °F - 75.6 °F 88% 29.88 in 0.5 mi Variable 2.3 mph - 0.29 in Fog , Rain , Thunderstorm Thunderstorms and Rain
5:03 PM 78.8 °F - 75.2 °F 89% 29.88 in 2.0 mi Variable 1.2 mph - N/A Rain , Thunderstorm Light Thunderstorms and Rain
5:08 PM 78.8 °F - 75.2 °F 89% 29.91 in 3.0 mi NE 13.8 mph 23.0 mph N/A Rain , Thunderstorm Light Thunderstorms and Rain
5:18 PM 75.2 °F - 69.8 °F 83% 29.92 in 2.0 mi ENE 21.9 mph 32.2 mph N/A Rain , Thunderstorm Heavy Thunderstorms and Rain
5:23 PM 73.4 °F - 68.0 °F 83% 29.91 in 2.0 mi East 18.4 mph 32.2 mph N/A Rain , Thunderstorm Thunderstorms and Rain
5:28 PM 73.4 °F - 68.0 °F 83% 29.92 in 4.0 mi East 12.7 mph 27.6 mph N/A Rain , Thunderstorm Light Thunderstorms and Rain
5:51 PM 73.4 °F - 66.2 °F 78% 29.88 in 10.0 mi Variable 2.3 mph - N/A Thunderstorm Thunderstorm
5:54 PM 73.4 °F - 64.4 °F 73% 29.88 in 10.0 mi Calm Calm - N/A Thunderstorm Partly Cloudy
5:58 PM 74.1 °F - 64.9 °F 73% 29.88 in 10.0 mi Variable 2.3 mph - 0.17 in Thunderstorm Partly Cloudy
6:58 PM 73.9 °F - 70.0 °F 87% 29.90 in 10.0 mi Variable 1.2 mph - N/A   Clear
7:58 PM 74.7 °F - 69.6 °F 84% 29.88 in 10.0 mi Variable 3.5 mph - N/A   Clear
8:58 PM 73.4 °F - 69.1 °F 86% 29.89 in 10.0 mi Calm Calm - N/A   Clear
9:58 PM 73.0 °F - 69.1 °F 87% 29.91 in 10.0 mi NNE 4.6 mph - N/A   Clear
10:58 PM 72.9 °F - 68.5 °F 86% 29.91 in 10.0 mi NNE 2.3 mph - N/A   Clear
11:58 PM 72.9 °F - 68.4 °F 86% 29.91 in 10.0 mi Calm Calm - N/A   Clear